Find Starlink 5701

NORAD ID: 55487 Int'l Des: 2023-015 Owner: SPXS Country: US Constellation: starlink operational
LEOCIRCULAR

現在のビュー

3D地球を読み込み中...

About Starlink 5701

Starlink 5701 (NORAD 55487) is a starlink constellation satellite (v1.5) launched Feb 2, 2023 by SPXS of US. It operates in LEO, CIRCULAR orbit with a mass of 305.00 kg.

Starlink 5701について

説明を読み込み中...

次回通過

Passes for default location (London). Set your location on the main map for personalized predictions.

高度履歴

Loading altitude history...

軌道要素

1 55487U 23015AQ 26194.48484269 -.00001258 00000-0 -36194-4 0 9992
2 55487 43.0045 349.3429 0001234 269.3131 90.7579 15.27580928189839
Epoch: Jul 13, 2026 • Age: 18 hours

現在のステータス

高度 495.3 km
遠地点 / 近地点 N/A
速度 7.62 km/s
衛星直下点 -42.46°S, 116.24°W
打ち上げ日 Feb 2, 2023
運用期間 3.4 years
タイプ internet

技術仕様

分類 Payload
質量 305.00 kg
乾燥質量 290.00 kg
総質量 305.00 kg
長さ 0.20 m
直径 2.80 m
スパン 9.00 m
形状 Box + pan
製造者 SPXS
バスタイプ Starlink
フェーズステータス In Orbit
所有者/国 SPXS/US

Most Searched